Location: Detroit
(42.3310°N, 83.0460°W)
Time: 19:56:35
(UTC-04:00)

A-11 Canister half - Pass Details

Date: 08 February 2023
Orbit: 1526 x 1682 km, 47.3° (Epoch: 29 March)

Event Time Altitude Azimuth Distance (km) Brightness Sun altitude
Rises 12:15:12 0° 295° (WNW) 4,713 11.3 32.3°
Reaches altitude 10° 12:18:35 10° 286° (WNW) 3,744 10.9 32.4°
Maximum altitude 12:26:42 33° 227° (SW) 2,412 10.9 32.6°
Drops below altitude 10° 12:35:02 10° 168° (SSE) 3,836 12.5 32.7°
Sets 12:38:35 0° 159° (SSE) 4,842 12.6 32.7°
